sat.trackr.live / text

‹ back to catalog

STARLINK-11724 [DTC]

NORAD 64124 · 2025-111B

PAYLOAD ACTIVE UNKNOWN

§ Identity

Operator
Country
US
Launch date
2025-05-24
Launch site
AFETR
Launch vehicle
Mass (kg)
RCS (m²)

Purposes: comms

External: N2YO · Heavens-Above · Gunter

§ Orbital elements

Epoch: 2026-05-24T22:41:49.642080Z

Period
91.67 min
Inclination
43.0024°
Eccentricity
0.0001322
Mean motion
15.70885392 rev/d
Perigee alt
355.5 km
Apogee alt
357.3 km
Semi-major
6,734.5 km
B*
1.5554e-3
RAAN
234.0732°
Arg perigee
35.8046°
Mean anomaly
324.2910°
Rev number
5,863

§ Raw data

STARLINK-11724 [DTC]1 64124U 25111B   26144.94571345  .00204511  00000+0  15554-2 0  99962 64124  43.0024 234.0732 0001322  35.8046 324.2910 15.70885392 58638

JSON: /api/v1/satellites/64124 · /tle

For live sub-satellite position, see the globe view (requires WebGL).

§ Visibility from observer

Set your observer location to see the next 7 days of passes ≥ 10°. The values pass through the URL so the page stays shareable.

No JS? Fill the form by hand. The geolocation button needs JavaScript.